Wind_Speed
17 15 15 17 18 17 15 13 15 18 19 18 17 17 22 28 34 39 40 41 40 39 40 40 41 40 40 42 42 40 36 32 28 25 24 22 21 20 15 9 6 9 13 16 19 21 23 24 22 20 18 15 15 17 18 20 20 20 19 17 16 15 14 13 12 11 10 9 8 6 5 5 4 3 3 3 3 3 3 4 5 6 6 6 7
20 20 19 19 19 18 14 12 15 18 19 22 25 27 32 34 37 39 40 41 38 37 39 40 41 41 42 42 40 36 33 29 26 24 23 22 21 17 11 6 6 9 13 16 17 19 22 23 23 20 17 15 14 16 17 19 19 18 18 17 16 15 14 13 13 12 11 9 8 7 6 5 4 3 2 2 1 2 3 3 3 5 6 6 7
22 22 22 20 20 19 15 12 14 17 20 25 29 31 35 36 36 37 38 38 36 36 39 41 41 41 41 39 37 33 30 27 26 24 22 20 17 11 7 6 6 9 12 15 16 17 19 22 23 20 16 14 13 14 15 16 16 16 16 15 15 14 14 14 13 13 12 11 9 8 6 6 6 5 4 3 2 1 1 2 3 5 6 6 7
23 24 24 22 21 21 19 17 18 20 24 27 30 32 34 33 34 36 37 36 35 36 38 40 39 40 39 37 34 30 27 26 25 22 19 16 11 6 5 6 8 10 12 14 15 17 18 20 22 21 16 13 12 12 12 13 13 14 14 14 13 13 13 13 13 13 13 13 12 9 8 7 7 7 6 5 4 3 3 2 2 4 6 6 6
24 25 25 23 22 22 21 20 18 19 22 25 26 29 32 33 35 38 37 35 35 37 38 38 39 39 38 35 30 27 27 25 22 18 15 10 5 4 6 8 9 12 13 13 14 16 17 18 20 20 17 12 11 10 10 10 11 11 12 12 12 11 11 11 12 12 12 13 13 12 10 9 9 8 8 7 6 6 5 4 4 5 6 7 6
25 24 22 22 21 20 20 18 14 14 17 18 20 25 32 36 37 37 35 34 35 37 38 38 39 39 36 31 28 27 26 23 18 14 10 4 3 4 7 8 9 12 13 13 13 13 14 15 17 18 17 13 9 8 7 7 8 9 9 10 10 10 9 9 10 11 11 12 14 14 13 11 10 10 9 8 7 7 7 7 6 6 6 7 7
23 22 20 20 20 19 19 16 14 17 18 18 18 25 31 32 31 30 30 31 34 36 38 39 39 36 32 28 27 26 23 18 14 11 6 3 4 5 7 8 9 10 10 12 14 13 11 12 14 15 15 13 9 7 6 4 4 5 5 7 8 9 8 8 9 9 9 10 13 15 15 13 12 11 10 9 8 8 8 8 8 7 6 7 7
20 20 19 18 17 17 16 16 17 22 24 23 24 28 31 31 30 30 32 33 35 38 39 38 34 30 27 26 26 23 18 13 12 10 5 4 5 6 7 7 9 9 7 9 14 11 8 9 11 12 13 12 10 7 4 3 2 2 1 2 3 4 5 5 6 7 7 8 10 13 14 14 13 13 12 10 8 7 8 8 9 8 7 7 6
18 17 17 15 14 17 17 18 19 22 25 26 28 31 33 35 34 35 35 36 37 38 36 32 27 25 25 25 22 18 14 12 11 8 4 5 6 6 6 6 8 9 8 9 13 9 6 8 8 8 10 11 10 7 5 3 1 2 2 2 2 2 1 0 2 5 5 6 7 8 10 12 13 13 13 12 10 7 7 8 8 8 8 7 6
17 16 16 14 11 17 21 21 22 24 27 29 31 33 35 37 36 36 37 37 37 33 28 24 24 24 24 21 19 16 14 12 10 6 4 5 5 4 4 5 7 9 10 9 10 8 6 7 6 6 8 9 9 7 6 4 2 4 5 5 5 5 4 4 2 1 1 3 5 6 6 8 9 10 12 13 12 8 6 6 7 8 8 8 7
15 14 15 16 15 20 22 21 22 25 28 30 33 35 36 36 36 36 36 34 29 24 22 22 23 23 21 17 16 15 14 11 8 4 4 5 4 3 3 5 7 9 11 10 8 6 6 6 6 6 7 11 12 11 8 6 4 4 7 7 6 7 7 6 3 2 2 3 4 6 6 5 6 7 9 11 11 9 6 5 6 6 8 9 8
14 14 14 17 18 20 21 21 23 25 28 30 31 33 33 33 33 33 31 26 21 20 21 21 21 19 16 15 16 16 14 11 7 4 5 5 4 2 3 4 6 9 13 13 11 10 11 11 11 11 14 17 17 15 12 8 6 4 5 8 9 7 7 7 4 2 3 3 2 5 6 6 6 5 6 8 10 9 7 5 5 5 6 8 8
14 15 15 16 17 19 21 22 23 24 26 27 27 28 29 30 31 28 23 19 18 19 19 19 17 16 14 14 17 17 15 12 9 6 6 5 3 2 3 5 7 10 15 17 16 16 16 15 16 16 17 18 17 13 10 10 7 4 3 5 8 8 7 6 6 3 3 2 2 5 6 7 7 6 4 5 7 9 7 5 4 3 5 7 7
15 15 16 16 16 17 19 21 22 23 24 25 26 27 28 28 25 21 17 16 17 18 17 15 14 14 14 14 16 18 16 14 11 9 7 5 4 5 7 9 11 13 18 21 23 24 24 23 23 21 18 14 13 10 7 8 8 6 3 2 4 7 7 7 7 5 3 3 1 3 5 7 8 7 5 4 5 7 7 5 3 3 4 5 6
18 18 17 17 18 18 19 20 21 22 23 24 25 26 25 22 18 14 14 15 16 15 13 12 12 14 14 15 17 18 17 16 15 14 12 11 12 13 14 15 18 21 25 28 29 30 30 30 31 30 28 22 16 12 8 4 5 7 5 2 1 3 5 6 7 6 4 4 3 2 4 7 7 7 6 4 4 5 6 5 3 2 3 5 6
21 20 19 19 19 20 20 20 20 21 22 22 22 21 18 15 12 12 13 14 13 11 10 11 12 14 15 17 19 19 19 21 22 21 21 21 21 21 21 22 25 28 29 31 31 31 30 30 30 31 31 31 27 19 12 6 2 6 6 4 2 2 3 5 6 6 6 6 7 6 5 6 6 7 6 4 4 5 5 4 4 2 3 4 5
22 21 21 21 21 20 20 19 19 19 19 19 17 15 12 11 11 12 12 11 9 8 10 12 13 14 16 19 20 20 22 24 26 26 26 25 24 23 23 25 28 29 31 34 36 36 34 33 32 32 31 31 31 27 20 12 4 3 5 5 4 4 4 5 4 5 6 7 9 9 9 8 8 8 7 5 5 5 5 4 3 2 2 3 4
23 22 21 21 20 19 18 18 17 17 16 14 12 11 10 10 10 10 9 8 7 8 10 12 13 15 17 18 19 20 22 24 25 26 25 25 24 23 25 27 27 28 32 37 41 42 41 38 36 34 32 30 30 30 26 20 12 4 2 5 6 6 6 6 5 4 5 6 8 9 11 10 8 8 8 8 7 5 5 5 3 2 2 3 3
23 22 21 20 19 17 16 15 14 13 12 11 10 10 9 8 8 7 6 6 8 9 10 11 13 15 17 18 19 20 21 22 23 23 24 24 24 24 26 26 25 27 31 37 42 44 44 43 40 35 32 30 28 28 29 27 21 13 6 2 5 7 8 9 8 6 6 6 7 8 9 10 9 10 10 10 9 7 6 6 4 2 1 2 3
22 20 19 18 16 14 13 11 10 9 9 9 10 9 7 6 6 5 5 7 9 9 11 12 13 15 17 18 19 20 20 21 21 22 23 25 25 25 26 24 23 25 29 36 40 43 44 43 42 38 33 30 27 26 29 30 29 25 19 12 6 8 10 11 10 9 9 8 8 7 7 8 9 10 12 12 11 9 7 6 6 4 2 1 2
20 19 17 14 12 10 9 8 8 8 8 8 7 6 5 5 5 6 8 8 8 9 11 12 14 16 18 18 19 20 20 20 20 22 23 24 24 24 23 22 22 24 27 33 37 40 42 43 41 39 34 31 28 26 27 31 32 32 31 27 20 13 10 11 13 13 12 12 11 9 8 7 7 9 11 12 12 10 8 7 7 6 4 2 0
16 14 12 9 7 6 6 6 7 7 6 5 3 3 5 7 8 8 9 7 7 9 12 13 15 17 19 19 19 19 20 20 20 22 22 21 21 21 21 20 21 25 28 30 34 36 38 42 42 39 35 31 30 26 25 29 31 33 34 34 32 28 23 17 13 15 16 15 13 13 12 9 8 8 9 10 12 12 9 8 9 9 7 5 2
11 8 6 5 4 5 6 6 6 5 3 2 4 6 8 9 9 8 8 8 8 11 14 16 17 19 19 19 19 19 19 19 19 19 19 18 18 18 18 19 20 25 29 30 33 35 35 39 41 40 36 32 30 27 25 26 28 31 33 34 35 33 31 27 21 15 14 17 17 16 15 12 10 10 10 10 11 13 12 10 11 12 10 7 5
5 4 3 3 4 5 5 5 3 1 2 5 8 9 9 9 9 9 9 10 12 14 16 17 18 19 19 19 19 19 18 17 17 18 18 18 18 18 18 19 21 25 28 29 31 33 33 36 39 39 37 35 32 29 26 25 27 31 33 34 35 35 34 32 29 24 17 13 16 18 17 15 13 12 12 11 11 12 14 14 14 15 14 11 9
2 2 2 3 4 5 4 2 1 4 7 9 10 10 10 9 9 10 11 13 15 15 16 17 18 19 18 18 17 17 17 17 17 18 19 19 19 18 18 20 23 25 27 27 28 31 32 33 36 36 36 37 35 30 27 26 28 31 33 34 34 35 34 33 31 28 25 19 12 14 18 18 15 14 13 12 11 11 13 15 16 17 17 15 12
2 2 2 2 3 2 0 2 6 9 11 12 11 11 10 10 11 12 14 15 15 14 14 15 17 17 17 16 16 16 17 17 16 16 16 16 16 17 20 21 23 24 26 26 25 29 32 31 34 35 34 36 37 33 29 27 28 31 34 36 37 36 35 33 32 31 29 26 21 13 12 18 18 16 14 13 12 11 12 13 15 17 18 18 17
3 2 1 1 1 3 5 8 11 12 13 13 12 12 12 13 14 15 15 14 13 12 12 13 13 14 14 14 14 14 14 14 14 14 15 16 17 18 21 22 23 23 25 25 22 26 31 28 28 32 33 34 33 32 29 28 28 30 33 35 37 39 39 37 35 34 32 30 27 23 15 11 17 19 17 15 13 12 11 12 14 15 17 20 20
3 2 3 5 7 9 10 12 13 13 13 13 13 13 15 15 15 15 13 12 11 10 11 12 12 12 12 12 12 12 12 12 13 15 17 17 18 19 20 22 22 22 24 24 21 22 28 28 26 27 30 31 29 26 25 25 26 27 29 31 34 36 39 40 39 37 35 33 30 27 24 16 10 16 19 18 15 14 13 13 13 14 15 18 20
4 6 8 9 10 11 13 14 14 13 13 13 14 16 16 15 14 13 12 11 10 10 11 11 11 11 10 10 11 11 11 12 14 16 17 17 18 19 20 20 21 22 23 23 21 20 25 28 27 26 27 29 29 27 23 21 22 23 25 27 29 32 35 37 40 40 39 37 33 29 27 24 17 10 15 19 18 17 16 16 15 14 15 17 19
8 10 11 11 11 12 13 14 14 13 13 14 16 16 14 13 12 12 11 11 10 9 9 9 9 10 10 10 10 11 12 13 14 15 16 17 17 18 19 20 20 21 21 21 21 20 23 26 26 26 26 27 29 31 27 22 21 21 22 24 26 29 31 33 36 39 40 40 37 32 28 25 24 18 11 13 19 20 19 18 17 17 17 17 18
12 13 13 12 12 13 14 15 15 14 15 17 16 14 12 12 12 12 11 10 9 8 8 8 8 9 9 9 10 11 12 12 13 14 15 16 16 17 18 19 20 20 20 19 19 19 21 22 23 24 25 26 28 32 31 25 23 23 22 22 24 26 29 31 32 34 37 39 39 37 32 27 25 24 20 13 11 17 21 21 20 20 20 19 18
14 14 13 13 13 15 16 17 17 17 18 17 14 13 13 13 13 12 12 11 10 9 9 9 9 9 9 9 10 11 11 12 12 13 14 15 16 17 18 19 19 19 19 18 18 18 18 19 20 21 23 25 27 31 31 28 25 24 24 23 23 25 26 28 30 31 33 35 37 38 36 32 28 26 24 21 16 11 14 20 23 24 23 22 21
15 14 14 15 16 17 18 18 18 18 17 15 14 13 13 13 12 12 12 11 11 10 10 10 9 9 10 10 11 11 12 12 13 13 14 15 16 17 18 18 18 18 18 18 18 18 17 17 18 20 21 23 26 30 32 31 28 26 25 25 25 24 25 26 27 29 30 32 34 35 36 35 33 30 27 25 22 18 14 12 18 24 26 26 25
15 15 16 18 19 19 19 18 16 15 14 13 12 12 11 11 11 12 11 11 11 10 10 10 9 9 10 11 11 12 12 13 13 14 14 15 16 18 18 18 17 17 16 17 16 16 16 16 17 18 20 21 25 29 32 32 31 29 26 25 25 25 25 25 26 27 28 30 31 33 34 35 35 34 31 28 24 21 19 17 13 14 21 27 29
16 17 18 19 20 19 17 15 14 12 12 11 11 10 10 10 11 11 11 10 10 10 10 10 10 10 11 11 12 13 13 13 13 13 14 15 16 18 19 18 17 15 14 14 14 14 15 16 16 17 19 21 24 28 31 31 31 30 28 26 25 26 26 26 25 26 27 29 30 31 33 33 34 35 35 32 29 24 21 20 19 16 13 16 24
18 18 18 19 19 17 15 13 12 11 11 10 10 10 10 10 10 10 10 10 10 10 10 10 10 11 11 12 12 13 13 14 14 14 15 16 16 17 19 19 17 14 12 11 12 14 16 16 16 17 19 21 23 26 28 29 29 29 29 27 26 26 26 26 27 27 27 28 29 30 31 32 33 33 34 35 34 30 25 22 20 20 18 15 12
20 19 18 18 17 15 13 12 11 10 11 10 10 10 10 10 10 10 11 11 11 11 11 11 11 11 12 13 13 13 14 14 15 15 16 16 17 18 18 19 18 15 13 11 11 13 16 17 17 18 19 20 22 24 26 26 27 28 28 27 26 26 25 26 27 28 29 29 29 29 30 31 32 33 33 34 36 34 30 25 23 22 21 19 15
20 19 18 18 16 14 11 10 10 10 10 10 9 9 9 9 10 11 12 12 12 11 11 12 12 13 14 14 15 14 14 14 15 16 16 17 18 18 18 18 17 16 15 13 11 12 15 17 18 19 20 21 22 23 24 25 25 26 26 26 26 26 25 25 26 28 29 30 30 30 30 30 31 32 33 33 34 35 35 31 26 24 23 22 20
20 18 16 16 14 11 10 8 8 8 8 8 8 8 8 9 10 11 12 12 12 11 12 13 14 14 15 16 15 15 15 15 15 16 17 18 19 19 19 18 17 16 15 14 12 11 13 17 19 21 22 22 23 24 24 25 25 25 26 26 26 26 26 26 26 27 28 30 30 30 31 31 31 32 32 33 34 34 35 35 32 28 25 24 23
20 18 15 13 11 9 7 6 6 6 6 6 6 6 7 9 10 11 12 12 12 12 13 14 15 16 17 17 17 16 16 16 16 16 17 18 19 20 20 18 16 15 15 14 13 11 13 16 19 21 23 24 24 25 25 25 26 27 27 27 27 27 27 26 26 26 28 29 31 31 31 31 31 31 31 32 34 34 34 35 35 34 30 26 24
20 17 13 11 10 8 6 4 5 5 5 4 5 5 7 8 9 10 11 11 11 12 13 15 16 17 18 18 18 17 16 16 16 16 17 17 19 21 21 19 17 15 14 14 14 13 14 17 20 22 24 25 25 25 25 26 27 28 29 28 28 28 27 27 27 26 27 29 31 31 31 31 31 32 31 31 32 33 34 34 35 36 35 32 28
18 15 12 11 10 8 5 4 5 5 4 4 3 4 5 7 8 9 10 11 11 13 14 16 17 18 18 18 17 17 16 15 15 16 17 19 21 22 21 19 18 16 16 15 15 16 16 19 21 23 24 25 25 25 26 27 28 29 30 30 29 29 29 28 28 27 27 28 31 32 32 31 31 32 32 32 31 31 33 34 34 35 36 35 33
15 13 12 10 9 6 4 4 5 4 3 2 2 3 4 6 8 9 10 11 12 13 15 16 17 18 18 17 16 16 16 16 16 18 19 21 23 23 22 21 20 19 19 18 18 18 19 20 22 23 25 26 27 27 27 27 28 29 30 31 31 30 30 30 30 29 28 28 30 32 32 31 31 31 32 33 32 30 31 33 34 34 34 35 35
14 13 11 10 8 6 5 6 6 4 3 1 0 2 4 6 8 9 10 11 12 14 15 16 17 17 16 16 15 15 16 17 18 19 21 22 23 24 23 22 22 22 21 21 21 20 20 21 21 24 27 30 31 31 30 29 29 29 30 31 32 32 31 31 31 31 30 30 30 32 32 31 31 30 31 32 33 32 31 31 33 34 34 34 34
13 12 10 9 8 8 7 8 7 5 3 2 2 2 4 6 8 10 11 11 12 13 15 15 15 15 15 15 15 16 17 18 19 20 22 23 24 24 24 23 22 22 22 22 22 21 21 21 22 26 29 31 33 34 33 31 30 30 31 32 33 34 33 32 32 32 31 31 31 32 32 32 32 31 30 30 31 32 31 31 32 33 34 34 34
13 12 10 9 9 9 9 9 8 6 5 4 3 4 5 6 8 10 11 12 13 13 14 14 14 13 14 14 15 17 18 19 20 22 23 24 25 24 24 24 23 22 21 21 22 22 22 23 26 28 30 31 34 35 34 33 31 30 31 32 34 35 35 34 33 33 33 32 32 33 34 33 32 33 31 29 29 30 31 31 32 32 33 34 34
14 13 12 10 10 10 10 10 9 7 6 5 5 5 6 7 9 10 12 13 13 13 13 13 13 13 13 14 16 18 20 21 22 23 24 24 25 25 25 25 25 23 22 21 21 23 25 26 27 28 29 31 33 33 33 33 33 31 31 32 34 35 35 34 34 34 35 34 34 35 37 37 35 33 33 31 29 30 32 32 32 32 32 33 34
13 14 13 12 11 11 11 11 10 9 8 7 7 7 7 8 9 11 12 13 13 13 13 13 13 13 14 15 17 19 21 22 23 24 24 25 25 26 26 26 26 25 23 22 22 24 26 28 29 29 30 32 33 32 32 33 33 33 33 33 33 33 33 33 34 34 35 35 36 37 39 41 40 37 34 32 30 30 32 32 33 33 33 33 33
12 13 13 13 13 12 12 12 11 10 10 9 9 9 8 9 10 11 13 14 14 13 13 13 14 15 16 17 18 20 21 22 23 24 25 25 25 26 27 27 27 26 26 25 25 27 30 33 34 35 35 35 35 34 34 35 35 34 33 33 33 32 32 32 33 34 35 35 36 38 40 42 43 42 40 37 33 31 31 33 34 34 34 33 33
12 13 13 14 14 14 13 12 12 12 11 11 11 10 10 10 11 12 14 14 14 13 13 14 15 16 18 19 20 21 21 23 24 25 26 25 25 26 28 29 29 29 29 29 29 30 34 37 39 40 39 38 37 36 36 37 36 34 33 33 33 33 33 33 34 35 35 36 36 38 40 41 43 44 43 42 40 36 35 37 38 37 35 34 34
12 12 12 13 14 13 13 12 12 13 13 13 12 12 11 11 13 14 15 15 15 14 14 15 17 18 20 20 21 21 22 23 25 27 27 26 26 27 29 31 31 32 33 34 34 34 36 39 41 41 40 38 36 35 38 38 35 33 32 33 34 34 34 36 37 37 37 37 37 38 39 40 41 42 43 43 43 41 41 43 44 41 38 35 33
Wind_Direction
295 290 277 274 279 280 276 270 278 280 279 284 283 279 285 291 295 301 304 305 307 312 314 314 318 324 328 328 325 325 325 325 326 329 333 333 330 328 333 355 27 19 24 31 30 29 28 27 32 38 37 48 67 75 84 87 88 86 86 86 87 88 89 90 89 87 79 71 58 45 28 14 9 1 348 345 328 313 315 326 358 14 12 21 33
293 292 287 280 280 282 276 266 278 281 278 280 279 287 294 294 296 298 300 302 307 310 309 313 320 326 325 324 323 323 323 324 324 328 331 328 327 328 340 19 43 31 30 32 33 33 33 31 30 36 43 51 67 78 84 88 89 88 90 92 93 93 89 86 83 80 75 66 52 38 21 1 350 352 347 351 343 312 301 310 353 16 15 22 34
293 291 290 284 281 281 275 261 268 272 269 276 281 287 291 292 294 295 298 302 305 305 306 315 321 322 321 321 321 322 323 323 324 328 329 326 327 334 5 47 59 40 31 32 34 35 35 35 32 33 43 52 64 80 86 87 88 91 95 95 96 93 88 83 78 73 68 63 52 37 20 5 355 357 6 19 35 12 329 319 356 23 25 27 36
292 290 290 288 285 281 276 262 256 260 267 278 286 290 289 289 291 294 299 302 305 305 309 317 319 319 319 319 319 322 323 324 326 329 328 327 333 1 45 80 72 40 33 31 32 34 33 34 32 31 37 51 63 78 88 86 87 92 96 97 95 90 85 81 78 73 66 63 56 45 27 14 7 8 20 35 47 54 49 21 18 31 35 35 40
295 293 291 289 287 282 276 269 269 277 286 293 294 291 291 294 296 298 298 299 301 307 314 317 317 318 317 317 320 323 323 326 329 330 330 335 358 53 85 102 68 38 34 27 26 29 33 34 32 30 34 48 63 73 83 85 88 95 98 97 95 89 82 80 81 75 67 62 58 52 41 29 22 20 26 39 47 55 58 54 48 42 45 44 46
299 298 294 291 290 284 274 270 275 281 285 288 290 290 293 296 296 294 293 293 300 310 315 316 316 315 314 317 322 324 326 330 331 334 340 359 66 83 111 108 61 42 35 23 18 21 30 35 32 31 33 43 59 70 74 79 89 98 102 102 97 89 83 82 81 75 69 62 59 55 49 41 33 32 33 39 44 52 56 56 56 55 54 54 54
298 296 296 297 294 287 275 268 255 247 253 261 279 289 290 292 292 295 298 300 307 314 315 314 313 312 315 321 325 328 332 335 339 346 359 60 86 93 109 99 66 52 39 27 20 16 26 34 34 32 33 42 54 64 66 71 88 104 104 103 100 92 88 86 82 74 69 60 57 56 55 50 42 37 35 37 39 46 54 55 56 57 57 59 61
294 293 295 295 294 289 270 261 251 242 247 256 272 281 284 291 300 309 311 312 314 314 313 312 311 314 321 327 331 334 337 343 350 357 26 90 106 104 99 87 71 56 37 29 20 13 12 22 30 30 33 41 53 63 59 53 72 139 139 107 94 98 97 87 83 77 67 55 51 53 57 57 50 41 33 28 30 39 50 54 53 54 55 57 61
292 291 287 286 297 297 268 253 256 251 254 260 267 273 278 289 302 312 314 314 313 310 310 311 314 322 329 334 337 339 342 349 352 3 54 112 128 123 117 85 61 44 29 22 20 17 359 8 18 21 29 33 46 60 59 31 341 234 232 248 261 234 204 338 97 79 65 50 40 41 52 56 53 48 38 25 19 26 41 48 50 48 50 53 59
293 288 278 274 276 275 266 258 255 252 256 261 265 269 277 289 302 308 308 308 308 309 312 316 322 329 336 341 343 342 348 352 351 12 78 125 139 147 133 72 44 38 29 17 19 17 351 352 2 9 20 17 17 28 38 31 317 250 247 252 252 248 252 263 265 29 42 21 15 7 25 44 43 44 42 29 17 15 27 40 47 44 45 49 55
292 285 273 271 260 256 265 268 260 256 258 262 266 272 281 291 300 302 302 305 308 314 320 323 329 337 346 352 355 356 1 1 1 36 100 124 139 146 109 53 36 35 25 13 9 4 340 334 340 345 347 342 338 337 337 346 343 265 244 243 247 249 249 249 262 291 277 316 359 350 346 5 19 25 33 29 17 11 18 31 44 44 43 49 56
292 288 279 277 272 265 271 275 269 267 265 268 273 278 285 291 296 298 302 308 316 323 325 329 337 350 3 12 17 18 17 19 29 68 113 124 133 127 86 40 32 28 13 3 354 347 336 324 319 314 315 318 320 319 305 300 326 316 255 238 239 249 255 240 234 275 297 306 2 1 343 338 344 349 14 23 12 7 13 25 38 43 43 49 58
297 294 289 283 277 271 272 275 275 274 273 276 281 285 288 292 296 301 307 317 325 329 331 337 350 10 21 25 31 33 33 41 56 87 115 126 126 86 44 29 24 12 1 1 2 1 357 347 337 328 322 322 324 323 298 283 292 305 292 247 237 241 256 240 226 260 318 317 30 19 354 338 330 321 336 8 6 360 5 19 31 44 44 45 56
297 293 290 287 281 276 273 274 276 277 280 283 285 288 291 295 300 306 316 327 331 335 340 349 12 29 27 28 37 42 49 58 70 88 100 101 83 52 41 35 28 23 26 34 38 37 37 34 29 22 11 356 346 346 321 289 279 272 275 285 246 239 250 245 231 241 285 293 351 10 341 318 313 314 315 333 355 351 353 4 16 47 54 47 51
298 294 291 288 283 279 276 275 277 280 283 285 287 291 295 300 305 316 327 332 337 344 353 11 36 38 31 37 45 53 61 69 75 81 82 78 71 64 60 54 51 54 56 53 48 45 43 41 40 40 39 35 26 18 10 330 273 256 254 263 287 265 263 257 242 236 249 267 278 274 297 302 301 310 310 308 327 336 341 347 355 29 62 58 51
300 297 294 290 285 281 280 280 282 284 286 288 292 297 302 309 317 328 334 337 348 359 16 38 46 42 42 49 56 64 71 75 78 79 78 75 71 70 67 65 68 67 59 50 44 41 38 36 36 37 39 42 42 39 34 21 291 242 241 236 242 293 299 286 254 238 241 248 258 254 256 270 277 285 286 290 297 310 323 329 336 355 49 63 55
300 297 294 290 287 287 287 287 288 289 291 294 300 306 312 321 329 336 340 347 3 24 44 51 49 50 55 59 63 69 75 78 79 76 73 69 68 70 69 73 75 67 55 48 44 41 38 36 36 37 38 41 44 46 45 40 29 252 246 248 254 274 296 305 276 245 244 242 248 252 251 249 256 266 269 279 283 286 296 306 315 327 28 56 56
299 296 293 290 290 290 290 290 291 291 295 301 306 314 322 328 338 344 349 3 32 53 57 55 54 60 62 63 65 68 74 77 75 72 68 66 67 69 73 79 74 62 55 50 45 42 39 37 36 38 40 41 45 48 49 49 49 48 263 258 264 274 280 288 286 272 258 251 251 253 256 256 258 261 260 272 278 272 274 282 287 300 358 42 50
296 293 290 289 290 289 288 288 289 293 300 306 312 320 330 339 352 357 8 41 65 68 62 59 61 66 65 64 65 68 71 73 71 67 66 67 69 72 78 79 68 60 57 50 45 41 39 36 35 37 40 42 45 50 51 50 49 48 42 314 275 278 277 272 271 275 273 273 270 262 259 262 263 263 260 265 269 261 258 268 265 259 305 22 38
291 289 288 288 287 286 283 284 291 300 306 309 317 328 342 1 14 30 58 76 81 73 62 60 64 68 68 66 68 69 70 69 65 64 69 72 73 77 81 76 65 62 56 47 43 40 39 36 35 36 39 43 47 52 53 51 49 47 43 31 348 301 284 275 270 271 272 274 278 275 269 263 259 261 263 263 261 251 243 252 250 239 237 344 29
287 285 285 284 280 280 281 289 300 307 311 314 323 342 16 40 65 79 81 87 89 73 60 59 65 72 73 71 69 69 68 66 64 66 72 74 75 77 78 73 65 56 47 41 36 35 38 37 35 36 38 41 45 52 58 56 54 52 50 46 37 17 342 307 290 283 279 274 270 269 271 271 265 261 262 260 253 242 235 238 238 229 221 224 24
284 283 281 277 275 282 291 301 307 309 313 318 340 35 67 82 92 86 81 89 86 68 62 65 72 76 77 75 71 67 67 67 68 71 74 76 75 74 73 68 57 43 36 33 29 29 36 38 37 37 38 42 43 48 58 60 57 56 54 49 44 38 29 10 334 304 289 281 274 269 265 269 282 280 267 257 247 239 233 232 231 224 216 212 207
282 278 273 273 284 295 302 304 306 312 320 11 71 86 94 97 92 83 82 86 79 73 73 76 78 76 76 75 72 68 66 67 69 71 73 75 74 72 68 59 44 33 28 27 26 27 34 39 39 38 39 43 46 47 54 59 56 54 52 45 40 38 36 31 19 352 313 287 276 271 265 263 273 281 275 263 252 244 239 235 230 222 217 215 213
276 272 273 292 305 303 303 304 304 331 77 91 97 102 102 96 87 82 83 84 84 82 81 80 78 75 74 73 71 67 62 63 67 68 69 70 72 69 60 45 30 22 18 20 24 26 32 39 41 40 40 43 48 51 55 58 56 53 48 42 38 36 34 32 28 22 4 322 281 267 265 263 262 268 272 268 261 252 244 241 234 225 222 223 226
271 275 295 308 301 296 297 303 77 101 102 103 107 107 100 93 87 86 87 90 92 88 82 80 78 75 73 71 69 65 61 64 67 65 65 66 64 51 36 27 19 15 13 16 21 24 30 37 41 42 42 45 49 53 60 62 56 49 42 38 37 36 34 32 28 26 22 10 335 280 263 261 261 263 266 266 264 259 251 247 240 232 229 230 234
271 280 295 299 289 283 80 101 107 108 109 110 110 105 100 95 91 92 94 96 96 90 82 78 76 74 72 69 67 65 62 63 61 55 51 47 36 20 14 13 12 13 12 13 16 21 28 34 40 43 45 49 53 57 62 62 54 46 40 37 37 36 35 32 29 27 24 20 13 348 286 261 257 258 261 262 263 265 262 258 252 244 238 236 237
258 257 244 204 150 110 105 107 111 113 114 113 110 106 102 98 94 94 95 94 93 86 75 70 69 67 67 66 62 57 54 52 45 33 23 15 11 8 8 9 9 10 10 10 11 18 25 28 34 40 45 50 55 58 59 57 51 45 40 37 35 35 34 34 32 29 26 23 20 15 357 292 258 253 254 257 259 264 266 264 261 255 246 240 239
226 178 140 125 112 106 107 112 115 118 118 114 111 108 104 99 96 94 92 89 84 74 64 60 60 59 57 56 49 41 37 31 21 11 6 5 7 8 9 9 8 7 6 6 7 14 18 20 24 30 37 43 47 50 51 50 47 43 37 33 32 32 31 32 33 32 29 26 24 21 17 4 303 260 252 253 255 260 263 262 262 259 252 242 238
174 139 125 117 110 109 112 116 119 120 118 116 115 111 104 98 94 91 87 81 74 67 61 56 52 49 44 38 33 28 21 11 6 4 4 4 6 8 7 7 7 4 2 3 3 6 9 10 14 17 22 28 31 33 36 38 38 37 33 28 26 26 26 28 29 31 31 29 26 24 21 19 9 322 269 257 256 258 260 260 259 258 256 249 242
146 128 122 117 114 115 118 121 122 123 122 122 120 112 100 93 91 88 83 77 72 68 61 51 43 38 29 20 14 9 2 360 3 6 7 6 6 6 4 2 1 359 359 0 359 359 0 1 6 10 13 15 17 20 23 27 26 26 25 22 20 19 20 22 23 26 29 30 28 24 22 21 21 14 338 280 262 258 258 258 257 256 258 256 251
133 126 123 120 119 121 123 124 123 123 124 124 121 108 95 89 87 86 84 80 75 67 56 45 38 32 21 8 2 359 358 0 6 9 9 8 5 3 0 357 355 354 356 358 360 359 358 359 0 4 9 11 10 12 17 21 21 19 17 14 12 11 13 16 17 20 22 25 27 27 23 20 20 20 16 355 297 267 259 257 258 257 258 258 256
130 127 125 123 123 123 123 122 121 119 119 120 114 102 90 84 83 82 81 76 69 61 55 51 46 38 25 13 8 6 5 7 10 11 11 8 5 3 360 356 354 355 356 358 3 5 4 4 3 3 7 9 9 9 13 18 19 17 14 10 8 5 5 6 9 13 15 17 21 25 26 23 19 16 16 15 6 328 280 262 257 257 257 256 256
131 128 126 125 124 123 123 122 120 117 114 112 107 98 88 80 79 78 74 69 63 55 51 51 48 38 28 22 17 13 12 13 14 13 11 9 6 6 4 1 359 359 1 6 11 14 13 10 8 7 8 10 10 10 13 17 17 15 12 10 8 4 0 358 358 1 5 8 11 16 22 25 24 19 13 10 11 9 351 306 271 260 256 255 254
131 130 128 127 126 124 122 119 115 111 109 106 101 94 85 78 74 71 68 64 58 51 47 42 36 29 26 23 20 17 15 14 15 13 12 12 11 11 9 8 5 2 9 19 22 22 19 14 12 11 12 12 12 12 12 15 16 15 11 9 7 5 1 356 353 351 353 358 1 4 9 16 22 23 19 11 6 7 8 3 339 293 266 257 254
134 133 131 129 128 125 119 113 109 106 105 102 99 94 86 77 71 66 61 57 51 45 40 33 26 23 21 20 17 14 12 11 12 13 12 12 12 11 10 10 7 4 16 29 31 30 24 19 18 17 15 14 14 13 13 13 13 13 11 8 6 5 3 358 353 349 348 349 352 356 359 3 9 16 21 20 14 7 4 6 4 354 323 280 259
140 138 135 134 132 127 119 112 107 105 104 103 102 97 87 75 65 57 51 44 41 37 33 29 23 20 18 18 16 10 8 9 10 10 10 10 9 8 7 8 5 2 13 27 32 32 29 26 25 21 18 17 16 14 13 13 12 11 9 6 5 3 1 359 356 352 349 347 346 348 350 353 357 1 9 16 19 15 6 0 1 1 358 345 298
146 143 140 140 138 131 122 114 108 105 104 104 100 94 82 69 55 46 39 34 31 28 25 24 22 17 15 14 12 9 6 6 7 8 8 7 5 3 2 3 1 357 2 14 23 26 27 27 25 22 20 19 15 13 13 11 10 10 7 4 2 1 358 357 355 353 351 348 346 344 344 345 348 351 354 2 11 17 14 4 358 358 359 359 353
153 150 147 146 144 136 126 117 109 105 104 100 94 87 73 59 47 39 33 30 26 21 19 19 18 14 11 10 8 6 4 3 4 4 3 2 1 358 356 356 354 351 354 3 10 14 17 18 18 17 17 16 13 12 11 8 7 7 5 3 0 358 356 354 353 353 352 350 348 345 342 341 341 344 345 348 356 5 13 12 5 359 357 358 360
158 156 153 151 147 140 130 120 110 106 105 99 90 79 63 49 41 34 29 26 24 19 15 13 12 10 8 7 5 2 1 1 0 359 358 356 356 354 351 349 346 344 347 353 358 359 0 3 7 8 8 10 9 9 9 4 3 3 2 2 0 358 355 352 351 350 351 351 349 346 343 341 338 338 339 341 344 350 360 7 10 7 0 357 357
163 162 159 154 150 143 134 125 119 116 111 104 90 72 56 43 36 32 27 24 22 17 12 9 7 6 5 4 2 360 358 357 357 355 353 350 349 347 344 342 340 338 337 343 346 341 341 347 353 356 358 1 3 3 4 1 358 357 357 357 358 357 354 350 348 347 348 350 350 347 344 342 339 336 334 335 337 340 346 354 1 7 7 2 356
168 169 163 159 156 150 144 143 142 136 123 109 88 66 51 41 34 29 24 21 19 14 9 7 5 3 3 3 360 358 355 353 352 349 346 344 343 342 340 338 336 333 333 336 335 329 328 333 340 346 349 353 357 358 358 356 355 353 351 351 353 353 351 349 346 344 344 346 348 347 345 342 340 337 334 332 332 333 336 342 348 355 2 5 2
172 173 171 170 168 165 167 167 164 157 138 115 85 57 42 34 28 23 19 16 14 9 5 3 3 2 1 359 357 355 351 346 344 340 338 339 340 341 341 338 336 336 335 331 327 322 321 324 331 339 344 347 351 353 352 351 351 350 347 346 347 348 348 346 343 342 341 342 344 346 345 342 339 337 335 332 329 328 328 332 337 343 349 356 1
176 179 180 180 181 186 199 194 183 174 155 131 82 44 28 20 17 15 12 10 7 4 3 2 1 359 357 355 352 349 344 339 335 333 333 336 339 341 341 339 337 336 335 330 325 321 318 320 326 334 340 344 346 346 346 345 345 345 344 343 342 343 343 342 340 338 338 338 338 341 342 341 339 337 335 333 330 326 323 324 328 334 339 343 350
181 184 187 192 201 215 219 207 199 194 187 177 48 13 8 7 7 8 6 4 3 1 1 360 358 355 352 350 346 342 337 333 331 329 330 333 337 340 340 339 336 334 333 331 329 326 324 325 329 334 338 340 341 340 340 339 339 338 338 338 338 337 338 339 337 334 333 333 333 335 336 337 337 335 334 333 331 328 323 321 322 325 330 334 337
186 191 198 207 220 228 221 211 212 219 222 245 295 331 347 355 358 359 358 357 358 359 358 357 354 350 347 343 339 335 332 329 328 328 330 333 336 339 338 337 335 333 331 332 332 331 330 331 332 334 334 335 336 336 335 335 333 331 330 331 332 332 333 333 333 332 329 327 327 329 331 332 333 333 332 331 330 330 326 322 320 321 322 326 329
191 197 207 219 228 227 223 220 227 235 243 261 286 311 324 340 348 349 349 349 352 355 356 354 349 344 340 336 333 331 330 329 328 330 331 333 336 338 338 336 333 330 329 331 333 332 330 329 328 328 329 331 333 333 332 333 331 328 326 326 327 328 330 331 329 328 327 324 323 324 326 326 327 328 329 328 327 327 326 323 321 321 319 319 321
196 199 204 212 220 224 227 233 239 245 254 265 280 297 311 328 338 340 342 344 348 352 352 347 340 334 330 328 328 330 330 331 332 333 333 334 335 336 337 336 333 329 326 327 330 332 332 330 328 327 327 328 329 330 330 330 329 328 325 325 325 326 329 331 330 326 324 322 321 321 322 323 323 324 324 323 323 323 324 323 321 321 320 317 316
205 204 203 204 209 220 231 240 247 253 259 266 274 287 302 319 329 334 336 338 343 347 344 338 330 324 321 321 324 328 331 332 334 334 334 335 334 334 335 335 332 328 325 323 325 329 332 333 332 329 326 324 324 325 327 328 328 327 325 325 326 326 329 332 331 328 323 319 318 319 320 320 320 321 321 319 318 319 321 321 319 319 317 314 312
214 216 214 210 209 216 227 238 248 255 262 269 275 285 299 314 324 328 331 334 338 341 336 327 320 316 315 317 321 326 329 332 333 333 333 334 334 334 333 332 330 327 323 319 319 322 326 329 330 328 326 324 322 323 325 326 326 326 326 326 327 327 328 329 329 328 325 319 316 316 319 319 318 317 317 317 315 314 317 319 318 316 315 311 307
220 225 226 225 220 219 225 234 246 256 265 273 279 287 300 311 319 324 326 329 332 333 327 319 314 312 312 316 320 324 328 331 331 332 332 331 332 333 332 330 328 325 323 319 316 316 319 322 325 326 326 325 324 324 325 326 324 325 326 327 327 328 327 327 326 325 324 321 317 315 316 317 316 314 312 312 313 312 313 316 316 313 312 310 304
229 232 235 236 234 230 229 234 244 257 268 276 282 290 300 309 316 319 322 324 326 325 319 312 310 310 313 316 320 324 328 330 331 332 331 329 328 329 329 328 327 326 325 323 320 317 316 318 321 323 325 326 325 323 324 324 323 324 326 327 327 327 327 325 325 324 322 321 318 315 315 315 315 312 309 307 308 309 309 313 314 311 309 309 303
Height
11025 11026 11025 11023 11023 11022 11022 11022 11021 11020 11018 11017 11017 11015 11012 11010 11008 11005 11003 11002 11001 10999 10997 10996 10994 10992 10990 10988 10985 10982 10980 10978 10976 10974 10973 10971 10969 10968 10968 10967 10966 10965 10964 10961 10959 10958 10956 10954 10952 10949 10948 10946 10944 10943 10942 10941 10940 10940 10940 10940 10940 10940 10940 10940 10940 10940 10940 10939 10939 10938 10937 10936 10935 10935 10934 10934 10934 10934 10933 10933 10933 10933 10933 10932 10931
11024 11024 11023 11022 11022 11021 11021 11020 11020 11019 11018 11016 11015 11013 11011 11009 11007 11005 11003 11002 11001 10999 10997 10996 10993 10991 10989 10987 10984 10981 10979 10977 10975 10974 10972 10971 10969 10968 10967 10967 10966 10965 10963 10961 10960 10958 10957 10955 10952 10950 10949 10948 10946 10945 10944 10943 10942 10941 10942 10942 10942 10942 10942 10941 10941 10941 10940 10940 10939 10938 10938 10937 10936 10935 10934 10934 10934 10933 10933 10933 10933 10933 10932 10932 10932
11022 11021 11021 11021 11021 11020 11020 11020 11019 11018 11017 11015 11013 11012 11010 11008 11006 11005 11003 11002 11001 10999 10997 10995 10992 10990 10988 10986 10982 10980 10978 10976 10974 10973 10972 10970 10968 10968 10967 10967 10966 10965 10963 10962 10960 10959 10957 10955 10954 10952 10950 10949 10948 10947 10946 10945 10944 10943 10943 10943 10943 10943 10943 10942 10942 10942 10942 10941 10940 10939 10938 10937 10936 10936 10935 10934 10934 10933 10933 10933 10933 10932 10932 10932 10932
11020 11020 11019 11019 11019 11019 11019 11018 11018 11017 11016 11014 11013 11010 11008 11007 11006 11004 11003 11002 11001 10999 10997 10994 10992 10990 10987 10984 10982 10979 10977 10975 10974 10972 10971 10969 10968 10967 10967 10966 10965 10965 10964 10962 10961 10959 10957 10956 10955 10953 10952 10951 10950 10948 10947 10946 10946 10945 10945 10944 10944 10944 10943 10943 10943 10943 10943 10942 10941 10940 10939 10938 10937 10936 10935 10935 10934 10934 10933 10933 10933 10933 10932 10932 10932
11018 11018 11017 11018 11017 11017 11017 11016 11016 11016 11015 11014 11012 11009 11007 11006 11005 11004 11003 11001 11000 10998 10996 10994 10991 10988 10986 10983 10981 10979 10977 10975 10973 10971 10970 10968 10967 10967 10966 10966 10966 10965 10964 10963 10961 10960 10958 10957 10956 10954 10953 10952 10951 10950 10949 10948 10947 10947 10946 10945 10945 10945 10945 10945 10945 10944 10944 10944 10942 10941 10940 10939 10938 10937 10936 10936 10935 10934 10934 10933 10933 10933 10932 10932 10932
11016 11016 11015 11015 11015 11015 11015 11015 11016 11015 11014 11013 11011 11009 11007 11005 11004 11002 11001 11000 10999 10997 10995 10992 10990 10987 10985 10983 10980 10978 10976 10974 10972 10970 10969 10968 10967 10967 10966 10966 10966 10965 10964 10963 10962 10961 10959 10958 10957 10955 10954 10953 10952 10952 10951 10950 10949 10948 10947 10946 10946 10946 10946 10946 10946 10946 10946 10945 10944 10942 10941 10940 10939 10938 10938 10937 10936 10935 10934 10934 10933 10933 10933 10932 10932
11015 11015 11014 11013 11013 11013 11013 11013 11014 11013 11012 11011 11010 11009 11007 11005 11003 11001 11000 10999 10998 10996 10994 10991 10989 10986 10984 10982 10980 10977 10975 10973 10971 10970 10969 10968 10967 10967 10967 10967 10967 10966 10965 10963 10962 10961 10960 10959 10957 10956 10955 10953 10953 10952 10952 10951 10951 10950 10949 10948 10947 10947 10947 10947 10947 10947 10947 10946 10945 10944 10942 10941 10940 10939 10939 10938 10938 10937 10936 10935 10934 10933 10933 10932 10932
11014 11014 11013 11012 11012 11012 11012 11011 11011 11011 11010 11010 11009 11008 11006 11004 11001 11000 10999 10998 10997 10995 10993 10991 10988 10986 10984 10981 10979 10976 10974 10972 10971 10969 10968 10968 10968 10968 10968 10968 10967 10967 10965 10964 10963 10962 10961 10959 10958 10957 10955 10954 10954 10953 10953 10952 10952 10951 10951 10950 10949 10948 10948 10948 10948 10948 10947 10947 10946 10945 10944 10943 10941 10940 10940 10939 10939 10938 10937 10936 10935 10934 10933 10932 10932
11013 11012 11012 11012 11012 11011 11010 11009 11009 11009 11009 11009 11008 11006 11004 11002 11000 10999 10997 10997 10996 10994 10992 10990 10987 10985 10983 10980 10978 10975 10974 10972 10971 10969 10969 10969 10969 10969 10968 10968 10968 10967 10966 10965 10964 10962 10961 10960 10959 10957 10956 10955 10954 10954 10953 10952 10952 10951 10951 10950 10949 10949 10948 10948 10948 10948 10948 10947 10947 10946 10945 10944 10943 10942 10941 10941 10940 10939 10938 10937 10936 10935 10934 10933 10932
11010 11010 11010 11011 11011 11010 11008 11008 11007 11008 11008 11007 11006 11004 11003 11001 10999 10998 10997 10996 10996 10994 10992 10989 10987 10985 10983 10980 10977 10975 10973 10972 10971 10970 10969 10970 10970 10969 10969 10969 10968 10968 10967 10966 10964 10963 10962 10960 10959 10958 10956 10955 10955 10954 10953 10952 10952 10951 10950 10950 10949 10949 10949 10948 10948 10948 10948 10948 10948 10947 10946 10945 10945 10944 10943 10942 10941 10940 10939 10937 10936 10935 10934 10933 10933
11008 11008 11008 11008 11008 11008 11007 11006 11006 11006 11006 11005 11004 11003 11001 11000 10999 10998 10997 10996 10995 10993 10990 10988 10986 10984 10982 10979 10977 10975 10973 10972 10971 10970 10970 10971 10971 10970 10970 10970 10969 10968 10967 10966 10965 10963 10962 10961 10959 10958 10956 10955 10955 10954 10953 10952 10951 10950 10949 10949 10949 10949 10949 10949 10948 10948 10948 10948 10948 10947 10947 10946 10946 10945 10944 10943 10942 10941 10940 10938 10937 10936 10935 10934 10933
11008 11007 11006 11006 11006 11006 11006 11006 11005 11005 11004 11004 11003 11002 11001 10999 10998 10998 10997 10996 10994 10992 10989 10987 10985 10984 10982 10979 10977 10975 10973 10972 10972 10971 10971 10972 10972 10971 10971 10970 10970 10969 10968 10967 10966 10964 10963 10962 10960 10958 10956 10954 10953 10953 10952 10951 10950 10950 10949 10948 10948 10949 10949 10949 10949 10948 10948 10947 10947 10947 10947 10946 10946 10945 10944 10943 10943 10942 10940 10939 10938 10937 10936 10935 10934
11008 11007 11006 11005 11005 11005 11005 11005 11004 11004 11003 11003 11002 11001 11000 10999 10998 10997 10996 10994 10993 10991 10988 10986 10985 10984 10982 10980 10977 10975 10974 10973 10973 10972 10972 10973 10972 10972 10971 10971 10971 10970 10969 10968 10967 10965 10963 10961 10958 10956 10954 10952 10951 10950 10949 10949 10949 10949 10948 10947 10947 10948 10948 10949 10949 10948 10948 10947 10947 10946 10947 10947 10946 10945 10944 10943 10943 10942 10941 10940 10938 10938 10937 10936 10935
11007 11007 11006 11005 11005 11004 11004 11004 11004 11003 11002 11001 11001 11000 10999 10998 10997 10996 10994 10993 10992 10990 10988 10986 10985 10984 10982 10980 10978 10976 10975 10974 10974 10973 10973 10973 10973 10973 10972 10972 10972 10972 10971 10969 10967 10965 10963 10960 10957 10954 10952 10950 10949 10947 10947 10946 10947 10947 10947 10947 10947 10947 10948 10948 10948 10948 10947 10947 10947 10946 10947 10947 10946 10945 10945 10943 10943 10943 10942 10941 10939 10938 10937 10937 10936
11005 11006 11005 11005 11004 11003 11003 11003 11002 11002 11001 11000 11000 10999 10998 10997 10996 10995 10993 10992 10991 10989 10988 10986 10985 10984 10982 10980 10979 10978 10976 10975 10975 10974 10974 10974 10974 10974 10973 10973 10973 10972 10971 10970 10968 10966 10963 10960 10958 10955 10952 10949 10947 10945 10945 10945 10945 10946 10946 10946 10946 10946 10947 10947 10947 10947 10947 10946 10946 10946 10946 10946 10945 10945 10944 10943 10943 10943 10942 10941 10940 10939 10938 10937 10937
11003 11003 11003 11003 11002 11002 11002 11001 11001 11000 10999 10999 10998 10997 10996 10996 10995 10994 10993 10991 10990 10989 10988 10986 10985 10984 10982 10981 10980 10979 10978 10976 10976 10976 10976 10975 10975 10975 10974 10974 10974 10973 10971 10970 10968 10966 10963 10961 10958 10955 10953 10950 10947 10945 10944 10944 10944 10945 10945 10945 10945 10946 10946 10946 10946 10946 10945 10945 10945 10945 10945 10945 10944 10944 10943 10943 10943 10942 10942 10941 10941 10940 10938 10938 10937
11001 11001 11000 11000 10999 10999 10999 10999 10999 10998 10997 10997 10996 10996 10995 10995 10994 10993 10992 10991 10990 10989 10988 10986 10985 10984 10983 10982 10981 10980 10979 10978 10977 10977 10977 10976 10976 10976 10975 10975 10974 10973 10972 10970 10968 10966 10964 10961 10959 10956 10953 10950 10948 10946 10944 10944 10944 10944 10944 10944 10944 10945 10945 10945 10945 10944 10944 10944 10943 10943 10944 10943 10943 10943 10943 10942 10942 10942 10942 10941 10941 10940 10939 10938 10938
11000 10999 10998 10998 10998 10998 10997 10997 10996 10996 10995 10995 10995 10995 10994 10994 10993 10992 10991 10990 10989 10989 10988 10987 10986 10985 10984 10983 10982 10981 10980 10979 10978 10978 10977 10977 10977 10976 10976 10975 10975 10974 10972 10970 10968 10966 10964 10962 10960 10957 10954 10952 10949 10947 10946 10944 10944 10943 10943 10943 10943 10944 10944 10943 10943 10943 10943 10943 10942 10942 10942 10942 10942 10942 10942 10942 10942 10942 10941 10941 10941 10940 10940 10939 10939
10998 10997 10996 10996 10996 10996 10996 10996 10995 10995 10995 10995 10995 10994 10994 10993 10992 10991 10991 10990 10990 10989 10988 10987 10986 10986 10985 10984 10983 10982 10981 10980 10980 10979 10979 10978 10977 10977 10977 10977 10976 10975 10973 10971 10968 10967 10965 10963 10961 10958 10955 10953 10951 10949 10947 10946 10944 10944 10943 10943 10943 10943 10943 10942 10942 10942 10941 10941 10941 10941 10941 10941 10940 10941 10941 10941 10941 10941 10941 10941 10941 10941 10941 10940 10939
10996 10996 10995 10995 10996 10996 10995 10995 10995 10995 10995 10995 10994 10994 10993 10992 10992 10991 10991 10990 10990 10989 10989 10988 10987 10986 10985 10985 10984 10983 10982 10982 10981 10981 10980 10979 10979 10979 10979 10978 10977 10976 10974 10972 10969 10967 10966 10964 10961 10959 10956 10954 10952 10950 10949 10947 10946 10946 10945 10944 10943 10943 10942 10942 10941 10941 10940 10940 10940 10940 10939 10940 10939 10939 10939 10940 10940 10940 10940 10940 10940 10940 10940 10940 10939
10995 10994 10994 10995 10995 10995 10995 10995 10995 10995 10995 10995 10994 10994 10993 10992 10991 10991 10991 10991 10991 10990 10990 10989 10988 10987 10986 10986 10985 10984 10984 10983 10983 10982 10982 10982 10981 10981 10980 10979 10978 10976 10974 10972 10971 10969 10967 10965 10963 10960 10958 10955 10953 10952 10950 10949 10948 10948 10947 10946 10945 10944 10943 10941 10940 10939 10939 10939 10939 10939 10938 10938 10938 10938 10938 10938 10939 10939 10939 10939 10939 10940 10940 10940 10939
10993 10993 10993 10994 10994 10994 10994 10994 10995 10995 10995 10994 10994 10993 10992 10992 10992 10992 10992 10992 10992 10991 10991 10990 10989 10988 10987 10987 10986 10986 10985 10984 10984 10983 10983 10984 10983 10983 10982 10981 10979 10977 10975 10973 10973 10972 10970 10967 10964 10962 10959 10957 10954 10953 10951 10950 10949 10948 10947 10947 10946 10944 10943 10941 10939 10938 10937 10937 10937 10937 10937 10937 10937 10937 10937 10937 10937 10938 10938 10938 10938 10939 10939 10939 10939
10992 10992 10993 10993 10993 10993 10994 10994 10994 10994 10994 10994 10994 10993 10993 10993 10993 10993 10993 10993 10993 10993 10992 10991 10990 10990 10989 10988 10988 10987 10987 10986 10985 10984 10984 10985 10985 10984 10983 10982 10980 10978 10976 10975 10974 10972 10971 10969 10965 10963 10961 10958 10956 10954 10953 10952 10951 10950 10949 10948 10946 10945 10943 10941 10939 10937 10936 10935 10935 10935 10936 10935 10935 10935 10935 10935 10936 10936 10937 10937 10937 10938 10938 10938 10938
10991 10992 10992 10992 10992 10993 10993 10994 10994 10994 10994 10994 10994 10993 10994 10994 10994 10995 10995 10995 10994 10994 10994 10993 10992 10991 10990 10990 10989 10989 10988 10988 10987 10986 10986 10986 10985 10985 10984 10982 10981 10979 10977 10976 10975 10974 10973 10970 10967 10965 10963 10960 10957 10956 10955 10954 10954 10953 10951 10950 10948 10946 10944 10942 10940 10938 10935 10933 10933 10933 10933 10933 10933 10934 10934 10935 10935 10935 10936 10936 10936 10936 10936 10937 10937
10991 10991 10991 10992 10992 10992 10992 10993 10993 10994 10994 10994 10994 10995 10995 10995 10996 10996 10996 10996 10996 10995 10995 10994 10993 10992 10992 10991 10991 10990 10990 10989 10989 10989 10988 10987 10986 10985 10984 10982 10981 10979 10977 10977 10976 10976 10974 10972 10969 10967 10964 10961 10959 10958 10957 10957 10957 10956 10954 10953 10951 10948 10946 10944 10941 10939 10936 10933 10931 10930 10930 10931 10931 10932 10933 10933 10934 10935 10935 10935 10935 10935 10935 10935 10935
10991 10991 10991 10991 10991 10991 10992 10993 10993 10994 10994 10995 10996 10996 10996 10997 10997 10997 10997 10997 10997 10997 10996 10995 10994 10994 10993 10993 10992 10992 10991 10991 10991 10990 10990 10989 10987 10986 10984 10982 10981 10980 10978 10978 10978 10977 10974 10973 10971 10969 10966 10964 10963 10961 10960 10960 10958 10957 10956 10954 10952 10950 10947 10945 10942 10939 10937 10934 10931 10929 10928 10929 10930 10930 10931 10931 10932 10933 10934 10934 10934 10934 10934 10934 10934
10991 10991 10991 10991 10991 10992 10992 10993 10994 10995 10995 10996 10997 10997 10998 10998 10999 10999 10999 10998 10998 10998 10997 10997 10996 10995 10995 10994 10994 10993 10992 10992 10992 10991 10990 10989 10988 10987 10985 10983 10982 10980 10979 10979 10978 10977 10976 10975 10974 10972 10970 10968 10967 10965 10963 10961 10960 10958 10957 10955 10953 10951 10948 10946 10943 10940 10937 10935 10932 10930 10928 10927 10928 10929 10929 10930 10930 10931 10931 10932 10932 10932 10932 10932 10932
10992 10991 10991 10992 10992 10993 10993 10994 10995 10996 10997 10998 10999 10999 11000 11000 11000 11000 11000 11000 10999 10999 10998 10998 10998 10997 10996 10996 10995 10994 10993 10992 10992 10991 10990 10989 10988 10987 10986 10984 10983 10981 10980 10979 10978 10978 10977 10976 10975 10974 10972 10971 10970 10969 10966 10964 10962 10960 10958 10956 10954 10952 10950 10947 10944 10941 10939 10936 10934 10932 10929 10928 10927 10927 10928 10928 10929 10929 10929 10930 10930 10931 10931 10931 10931
10992 10992 10992 10992 10993 10994 10995 10996 10997 10998 10999 11000 11000 11001 11001 11001 11001 11001 11001 11001 11000 11000 10999 10999 10998 10998 10997 10996 10996 10995 10994 10993 10992 10990 10990 10989 10988 10987 10986 10985 10983 10982 10981 10980 10979 10978 10977 10976 10975 10974 10973 10972 10972 10970 10968 10966 10964 10962 10960 10958 10955 10953 10951 10949 10946 10943 10941 10938 10936 10934 10932 10929 10927 10926 10926 10927 10927 10928 10928 10928 10928 10929 10929 10929 10929
10992 10992 10993 10994 10995 10996 10997 10998 10999 10999 11000 11001 11001 11002 11002 11002 11002 11002 11002 11002 11001 11001 11000 11000 10999 10998 10997 10997 10996 10995 10994 10993 10992 10990 10989 10989 10987 10986 10985 10984 10983 10982 10981 10980 10979 10978 10976 10975 10975 10974 10973 10973 10972 10970 10969 10967 10965 10963 10961 10958 10956 10954 10951 10949 10947 10945 10943 10940 10938 10936 10934 10931 10929 10927 10926 10925 10925 10926 10926 10926 10927 10927 10927 10928 10928
10993 10993 10994 10995 10996 10997 10998 10999 11000 11001 11001 11002 11003 11003 11003 11003 11003 11003 11003 11003 11002 11002 11001 11001 11000 10999 10998 10997 10997 10996 10995 10994 10992 10991 10990 10989 10988 10987 10985 10984 10983 10982 10981 10979 10978 10977 10976 10975 10975 10974 10973 10973 10972 10970 10968 10966 10964 10962 10961 10959 10956 10954 10952 10949 10948 10946 10944 10942 10940 10938 10935 10933 10931 10929 10927 10925 10924 10924 10924 10924 10925 10925 10925 10925 10926
10993 10994 10995 10996 10998 10999 11000 11000 11001 11002 11002 11003 11004 11004 11005 11004 11004 11004 11004 11004 11003 11003 11002 11001 11001 11000 10999 10999 10998 10996 10995 10994 10993 10992 10991 10989 10988 10987 10986 10984 10983 10982 10980 10979 10978 10977 10976 10975 10975 10974 10973 10972 10971 10970 10968 10966 10963 10961 10960 10958 10956 10954 10952 10950 10948 10946 10945 10944 10942 10940 10937 10934 10932 10929 10928 10926 10924 10923 10922 10922 10922 10922 10923 10923 10923
10994 10995 10997 10998 10999 11000 11001 11002 11003 11003 11004 11004 11005 11005 11005 11005 11005 11005 11005 11004 11004 11003 11003 11002 11002 11001 11000 10999 10998 10997 10996 10995 10993 10992 10991 10990 10989 10987 10986 10984 10983 10981 10980 10979 10977 10976 10976 10975 10974 10973 10973 10972 10970 10969 10967 10965 10963 10961 10959 10957 10955 10953 10952 10950 10948 10947 10946 10944 10943 10941 10939 10937 10934 10931 10929 10927 10925 10923 10921 10920 10920 10919 10920 10920 10920
10995 10996 10998 10999 11001 11001 11002 11003 11004 11004 11005 11005 11005 11006 11006 11006 11006 11006 11005 11005 11004 11004 11003 11003 11002 11002 11001 11000 10999 10998 10997 10996 10994 10993 10991 10990 10989 10987 10986 10984 10983 10981 10980 10979 10977 10976 10976 10975 10974 10973 10972 10971 10969 10968 10966 10964 10962 10960 10958 10956 10954 10953 10951 10950 10949 10947 10946 10944 10943 10941 10939 10938 10936 10933 10931 10928 10926 10924 10922 10920 10918 10917 10917 10917 10917
10996 10998 10999 11001 11002 11002 11003 11004 11004 11005 11005 11006 11006 11006 11007 11007 11006 11006 11006 11006 11005 11005 11004 11004 11003 11003 11002 11001 11000 10999 10997 10996 10994 10993 10991 10990 10989 10987 10985 10984 10983 10981 10980 10979 10977 10976 10975 10975 10974 10973 10972 10970 10969 10967 10965 10963 10962 10960 10958 10956 10954 10952 10951 10950 10948 10947 10945 10944 10943 10941 10939 10937 10936 10934 10932 10930 10927 10925 10923 10920 10918 10916 10914 10914 10915
10997 10999 11000 11002 11002 11003 11004 11004 11005 11005 11005 11006 11006 11007 11007 11007 11007 11007 11006 11006 11006 11006 11005 11004 11004 11003 11002 11001 11000 10998 10997 10995 10994 10993 10991 10990 10989 10987 10986 10984 10983 10981 10980 10978 10977 10976 10975 10974 10974 10973 10972 10970 10968 10966 10965 10963 10962 10960 10958 10956 10954 10952 10950 10949 10948 10946 10945 10943 10942 10940 10938 10936 10935 10933 10932 10930 10928 10925 10923 10921 10919 10916 10914 10912 10912
10998 11000 11001 11002 11003 11004 11004 11005 11005 11006 11006 11006 11007 11007 11007 11007 11007 11007 11007 11006 11006 11006 11005 11004 11003 11003 11002 11000 10999 10998 10996 10995 10994 10992 10991 10990 10989 10988 10986 10985 10983 10982 10980 10979 10978 10976 10975 10974 10973 10972 10971 10970 10968 10966 10964 10963 10961 10960 10958 10956 10954 10952 10950 10948 10947 10945 10943 10942 10941 10939 10937 10935 10934 10932 10931 10929 10927 10926 10923 10921 10919 10916 10914 10911 10910
10999 11000 11002 11003 11003 11004 11005 11005 11006 11006 11006 11007 11007 11007 11007 11007 11007 11007 11007 11007 11006 11006 11005 11004 11003 11002 11001 11000 10999 10998 10997 10995 10994 10993 10991 10990 10989 10988 10986 10985 10984 10982 10980 10979 10978 10977 10976 10974 10973 10972 10971 10970 10968 10966 10964 10962 10961 10960 10958 10956 10954 10952 10950 10948 10946 10944 10943 10941 10939 10938 10936 10934 10933 10932 10930 10928 10926 10924 10923 10921 10919 10916 10913 10911 10909
10999 11001 11002 11003 11004 11004 11005 11005 11006 11006 11007 11007 11007 11008 11008 11008 11008 11007 11007 11006 11006 11005 11005 11004 11003 11002 11001 11000 10999 10998 10997 10995 10994 10992 10991 10989 10988 10987 10986 10984 10983 10982 10980 10979 10977 10977 10976 10974 10973 10972 10971 10970 10968 10966 10964 10962 10961 10960 10958 10956 10954 10952 10950 10948 10946 10944 10942 10940 10938 10937 10935 10933 10932 10930 10929 10927 10925 10923 10921 10920 10918 10916 10913 10911 10908
10999 11001 11002 11003 11004 11004 11005 11005 11006 11007 11007 11007 11008 11008 11008 11008 11008 11008 11007 11006 11006 11005 11004 11003 11003 11002 11001 11000 10999 10998 10996 10995 10993 10991 10990 10988 10987 10986 10985 10984 10982 10981 10980 10979 10977 10976 10975 10974 10973 10972 10971 10970 10968 10965 10964 10962 10961 10959 10957 10955 10954 10952 10950 10947 10945 10943 10941 10939 10938 10936 10933 10932 10930 10929 10927 10925 10923 10921 10920 10918 10917 10915 10913 10911 10908
10999 11000 11002 11003 11003 11004 11005 11005 11006 11007 11007 11008 11008 11008 11009 11009 11009 11008 11007 11006 11006 11005 11004 11003 11003 11002 11001 11000 10998 10997 10995 10994 10992 10991 10989 10988 10988 10987 10985 10984 10982 10981 10980 10978 10977 10976 10975 10973 10972 10971 10970 10969 10967 10965 10963 10962 10961 10959 10957 10955 10953 10951 10949 10947 10945 10943 10941 10939 10937 10935 10932 10930 10929 10927 10926 10924 10922 10920 10918 10916 10915 10913 10912 10910 10908
10999 11000 11001 11002 11003 11004 11005 11005 11006 11007 11007 11008 11008 11009 11009 11009 11009 11008 11007 11006 11005 11004 11004 11003 11002 11001 11000 10999 10998 10996 10995 10993 10992 10990 10989 10988 10988 10987 10985 10984 10982 10981 10979 10978 10977 10975 10974 10973 10971 10970 10969 10968 10966 10965 10963 10962 10960 10958 10956 10954 10952 10950 10948 10946 10944 10942 10941 10938 10936 10934 10932 10929 10927 10926 10924 10923 10921 10919 10917 10915 10913 10911 10910 10908 10907
10999 11000 11001 11002 11003 11004 11005 11005 11006 11007 11007 11008 11008 11008 11009 11009 11008 11007 11006 11005 11004 11004 11003 11002 11002 11001 11000 10998 10997 10996 10994 10992 10991 10989 10988 10988 10987 10986 10985 10984 10982 10981 10979 10978 10977 10975 10974 10973 10971 10970 10969 10967 10966 10964 10963 10961 10960 10958 10956 10953 10951 10949 10947 10945 10943 10941 10940 10938 10936 10934 10931 10929 10927 10925 10922 10921 10920 10918 10916 10914 10912 10910 10909 10907 10906
10999 11001 11002 11003 11003 11004 11005 11005 11006 11007 11007 11008 11008 11008 11008 11008 11008 11007 11006 11005 11004 11003 11002 11002 11001 11000 10999 10998 10996 10994 10993 10992 10990 10989 10988 10988 10987 10986 10984 10983 10982 10980 10979 10978 10976 10975 10974 10973 10971 10969 10968 10966 10965 10963 10962 10960 10959 10957 10955 10953 10951 10948 10946 10944 10942 10939 10938 10936 10934 10933 10931 10928 10926 10924 10922 10919 10918 10917 10915 10913 10911 10909 10907 10906 10904
10999 11000 11001 11002 11003 11004 11004 11005 11006 11006 11007 11007 11008 11008 11008 11008 11007 11006 11005 11004 11004 11003 11002 11001 11000 10999 10998 10996 10995 10993 10992 10991 10990 10989 10988 10987 10986 10985 10984 10982 10981 10980 10978 10977 10975 10975 10974 10972 10971 10969 10966 10965 10963 10962 10960 10959 10957 10955 10953 10951 10949 10947 10945 10943 10941 10939 10937 10934 10932 10931 10930 10928 10925 10922 10921 10918 10916 10915 10914 10912 10910 10908 10906 10904 10903
10997 10998 11000 11001 11002 11003 11004 11005 11005 11006 11006 11007 11007 11007 11007 11007 11006 11006 11005 11004 11003 11002 11002 11001 10999 10998 10996 10995 10994 10992 10991 10990 10990 10989 10988 10987 10985 10984 10983 10982 10980 10979 10977 10976 10975 10974 10973 10971 10969 10967 10965 10963 10962 10960 10958 10957 10956 10954 10952 10950 10948 10946 10944 10942 10939 10937 10935 10933 10931 10928 10927 10927 10925 10921 10919 10917 10915 10913 10912 10910 10909 10908 10906 10903 10901
10995 10996 10997 10999 11000 11002 11003 11004 11005 11005 11006 11006 11006 11006 11006 11006 11006 11005 11004 11003 11002 11001 11001 10999 10998 10996 10995 10994 10992 10991 10990 10990 10989 10989 10987 10986 10984 10984 10982 10981 10979 10978 10976 10975 10974 10973 10971 10970 10968 10966 10964 10962 10960 10959 10957 10955 10953 10952 10950 10948 10946 10944 10942 10940 10938 10936 10933 10931 10929 10926 10924 10923 10923 10921 10918 10916 10913 10911 10909 10907 10906 10906 10904 10902 10900
10995 10995 10995 10996 10998 11000 11002 11003 11004 11005 11005 11005 11005 11005 11005 11005 11005 11004 11003 11002 11001 11001 10999 10998 10996 10994 10993 10992 10991 10991 10990 10989 10989 10988 10986 10985 10984 10983 10982 10980 10978 10977 10975 10974 10972 10971 10969 10968 10966 10965 10963 10961 10959 10957 10956 10954 10951 10950 10948 10946 10945 10943 10941 10939 10937 10935 10932 10929 10927 10924 10921 10919 10917 10918 10917 10915 10913 10910 10907 10905 10903 10902 10901 10900 10898
10994 10995 10995 10996 10996 10997 10999 11001 11003 11004 11004 11004 11004 11004 11004 11004 11004 11003 11002 11001 11000 10999 10998 10996 10994 10993 10991 10991 10990 10990 10989 10989 10988 10987 10985 10984 10983 10982 10980 10979 10977 10976 10974 10973 10971 10969 10967 10966 10965 10963 10961 10960 10957 10955 10953 10951 10949 10947 10945 10943 10942 10940 10939 10937 10935 10933 10931 10928 10925 10923 10920 10916 10913 10912 10912 10911 10910 10909 10906 10904 10901 10899 10898 10897 10895
10993 10994 10995 10996 10996 10997 10998 10999 11001 11002 11003 11004 11004 11004 11004 11003 11003 11002 11001 11000 10999 10998 10996 10994 10992 10990 10990 10989 10989 10988 10988 10988 10987 10985 10984 10983 10982 10980 10978 10977 10975 10973 10972 10971 10969 10968 10965 10963 10962 10961 10959 10957 10955 10952 10950 10948 10946 10944 10942 10940 10938 10937 10935 10934 10932 10931 10929 10927 10924 10922 10919 10916 10912 10909 10907 10905 10904 10904 10903 10902 10900 10897 10895 10894 10892
10993 10994 10995 10996 10996 10997 10997 10998 10999 11001 11002 11003 11003 11003 11003 11002 11001 11001 10999 10998 10997 10996 10994 10991 10990 10988 10988 10988 10987 10987 10987 10986 10985 10984 10982 10981 10980 10978 10977 10975 10973 10971 10969 10967 10966 10966 10964 10961 10960 10958 10956 10954 10952 10950 10948 10946 10943 10941 10939 10937 10935 10933 10931 10929 10928 10927 10925 10924 10922 10920 10917 10915 10912 10908 10905 10902 10900 10899 10897 10896 10895 10894 10893 10891 10889